Погода в Иванове

Россия / Московская область     55°22′47″N   39°13′34″E
темп.,
°C
ветер,
м/с
пор.,
м/с
влажн.,
%
обл.,
%
осадки,
мм/ч
давл.,
гПа
погр.,
м
8 мая, сб
сб800:00+6ююв38697 0.0 1014141
03:00+6ююв31173100 0.0 1013227
06:00+7ююв41372100 0.0 1012432
09:00+10ююв51278100 0.2 10121225
12:00+9юв81690100 4.1 10091419
15:00+10ююв71687100 7.4 10071348
18:00+9юв51593100 5.9 10051229
21:00+10ююв51296100 15.1 10021114
9 мая, вс
вс900:00+10ююз3998100 5.3 1000560
03:00+9ю3897100 7.3 1002471
06:00+8зсз3697100 0.4 1003567
09:00+4сз51196100 0.4 1007629
12:00+3сз51297100 0.6 1011602
15:00+4ссз51397100 2.1 1014933
18:00+6с31091100 0.6 1016941
21:00+5зсз24958 0.6 101982
10 мая, пн
пн1000:00+3сз38935 0.0 1021161
03:00+1ссз38950 0.0 1024165
06:00+3ссз28910 0.0 1027221
09:00+9с48590 0.0 1028906
12:00+12ссв56380 0.0 10281532
15:00+14ссв56380 0.0 10281573
18:00+12ссв36510 0.0 10281148
21:00+6ссв36740 0.0 1030110
11 мая, вт
вт1100:00+5св26825 0.0 103095
03:00+3св27810 0.0 1030123
06:00+5св310762 0.0 1031265
09:00+12всв58552 0.0 1031763
12:00+17всв57380 0.0 10301184
15:00+18св45364 0.0 10281038
18:00+17всв37490 0.0 1029659
21:00+10всв377398 0.0 1029143
12 мая, ср
ср1200:00+9всв3117899 0.0 1028211
03:00+8всв311885 0.0 1028220
06:00+10всв411855 0.0 1027294
09:00+17в6116596 0.0 1025653
12:00+17в41169100 0.0 1026841
15:00+16вюв3107876 0.1 1025778
18:00+16вюв277845 0.0 1025365
21:00+13всв369376 0.0 1024111